{"data":{"norad_id":63115,"epoch":"2026-09-21T01:08:09.343104Z","epoch_age_seconds":114907,"freshness":"FRESH","line1":"1 63115U 25039M   26264.04733036  .00140427  00000+0  10786-2 0  9992","line2":"2 63115  42.9995 138.9780 0001340 260.8063  99.2653 15.70858928 90348","mean_motion":15.70858928,"eccentricity":0.000134,"inclination_deg":42.9995,"raan_deg":138.978,"arg_perigee_deg":260.8063,"mean_anomaly_deg":99.2653,"bstar":0.0010786,"rev_number":9034,"period_min":91.669593897486,"perigee_km":355.5385288984,"apogee_km":357.34339579231,"semimajor_km":6734.5779623454,"source":"CELESTRAK","updated_at":"2026-09-22T09:00:49.764815Z"}}